Zurück zum Katalog

CZ-4 DEB

AktivPO
NORAD 20891·DEBRIS·🇨🇳 China

Gestartet Sep 3, 1990 von Taiyuan Satellite Launch Center

Loading…

Nächste Überflüge (nächste 24 Stunden)

TLE

AktuellSource: Space-Track

Epoche: Sep 13, 2026, 15:11 UTC

1 20891U 90081BB  26256.63266108  .00000143  00000-0  18977-3 0  9994
2 20891  98.9812 279.7304 0212635  29.3881  97.3618 13.66121817788138

Verfolge CZ-4 DEB in Echtzeit mit AllMySat

Download on the App Store